GW2192 Weather Reports


time (UTC)temp
C
wind
direction
speed
KPH
gust
KPH
rain 1hr
cm
rain 24hr
cm
rain mn
cm
humidity
%
barometer
mb
20260508044017 13 0 0.0 0.0 0.00 0.00 0.00 24 1016.5
20260508043515 13 0 0.0 0.0 0.00 0.00 0.00 24 1016.5
20260508043034 13 0 0.0 0.0 0.00 0.00 0.00 24 1016.4
20260508042516 13 0 0.0 0.0 0.00 0.00 0.00 23 1016.4
20260508042015 14 0 0.0 0.0 0.00 0.00 0.00 21 1016.4
20260508041536 15 0 0.0 0.0 0.00 0.00 0.00 20 1016.4
20260508041019 15 0 0.0 0.0 0.00 0.00 0.00 19 1016.3
20260508040519 15 0 0.0 0.0 0.00 0.00 0.00 19 1016.3
20260508040049 16 0 0.0 0.0 0.00 0.00 0.00 19 1016.4
20260508035519 16 0 0.0 1.6 0.00 0.00 0.00 17 1016.2
20260508035023 16 0 0.0 1.6 0.00 0.00 0.00 16 1016.2
20260508034540 16 0 0.0 1.6 0.00 0.00 0.00 15 1016.2
20260508034016 17 0 0.0 4.8 0.00 0.00 0.00 14 1016.2
20260508033515 17 0 0.0 4.8 0.00 0.00 0.00 14 1016.0
20260508033032 17 0 0.0 3.2 0.00 0.00 0.00 14 1016.0
20260508032516 17 0 0.0 1.6 0.00 0.00 0.00 14 1015.8
20260508032021 17 0 0.0 1.6 0.00 0.00 0.00 14 1015.7
20260508031533 17 0 0.0 3.2 0.00 0.00 0.00 14 1015.7
20260508031018 17 0 0.0 3.2 0.00 0.00 0.00 14 1015.6
20260508030518 17 0 0.0 3.2 0.00 0.00 0.00 17 1015.5
20260508030034 17 0 0.0 3.2 0.00 0.00 0.00 19 1015.5
20260508025519 18 0 0.0 3.2 0.00 0.00 0.00 18 1015.5
20260508025015 18 0 0.0 1.6 0.00 0.00 0.00 20 1015.4
20260508024538 18 0 0.0 3.2 0.00 0.00 0.00 19 1015.3
20260508024020 18 0 0.0 3.2 0.00 0.00 0.00 17 1015.3
20260508023519 19 0 0.0 3.2 0.00 0.00 0.00 18 1015.2
20260508023034 19 0 0.0 3.2 0.00 0.00 0.00 17 1015.1
20260508022518 20 128 0.0 3.2 0.00 0.00 0.00 18 1015.1
20260508022019 20 0 0.0 4.8 0.00 0.00 0.00 18 1015.0
20260508021534 20 0 0.0 4.8 0.00 0.00 0.00 17 1014.9
20260508021018 20 125 1.6 4.8 0.00 0.00 0.00 16 1014.8
20260508020521 20 147 0.0 4.8 0.00 0.00 0.00 16 1014.7
20260508020034 20 0 0.0 4.8 0.00 0.00 0.00 17 1014.8
20260508015516 21 0 0.0 0.0 0.00 0.00 0.00 18 1014.7
20260508015018 21 0 0.0 0.0 0.00 0.00 0.00 18 1014.7
20260508014531 21 0 0.0 1.6 0.00 0.00 0.00 18 1014.6
20260508014018 22 0 0.0 1.6 0.00 0.00 0.00 18 1014.6
20260508013516 22 0 0.0 4.8 0.00 0.00 0.00 15 1014.5
20260508013037 22 0 0.0 8.0 0.00 0.00 0.00 15 1014.3
20260508012519 22 0 1.6 11.3 0.00 0.00 0.00 14 1014.3
20260508012016 23 171 1.6 11.3 0.00 0.00 0.00 13 1014.1
20260508011534 23 0 1.6 14.5 0.00 0.00 0.00 14 1014.2
20260508011016 23 184 1.6 14.5 0.00 0.00 0.00 14 1014.1
20260508010516 23 138 3.2 11.3 0.00 0.00 0.00 14 1014.0
20260508010033 23 115 1.6 14.5 0.00 0.00 0.00 13 1014.0
20260508005515 23 137 1.6 14.5 0.00 0.00 0.00 13 1014.0
20260508005016 23 138 3.2 11.3 0.00 0.00 0.00 13 1014.0
20260508004535 23 0 3.2 14.5 0.00 0.00 0.00 13 1014.0
20260508004016 23 0 4.8 14.5 0.00 0.00 0.00 12 1014.0
20260508003521 23 133 3.2 14.5 0.00 0.00 0.00 14 1014.0
20260508003035 23 134 3.2 8.0 0.00 0.00 0.00 12 1014.0
20260508002519 23 142 1.6 11.3 0.00 0.00 0.00 12 1014.0
20260508002019 23 130 3.2 11.3 0.00 0.00 0.00 12 1014.1
20260508001532 23 146 1.6 11.3 0.00 0.00 0.00 12 1014.0
20260508001019 23 150 3.2 12.9 0.00 0.00 0.00 12 1014.1
20260508000519 24 143 1.6 12.9 0.00 0.00 0.00 13 1014.0
20260508000034 23 134 1.6 12.9 0.00 0.00 0.00 12 1014.1
20260507235517 23 160 1.6 16.1 0.00 0.00 0.00 11 1014.0
20260507235015 23 149 6.4 16.1 0.00 0.00 0.00 11 1014.1
20260507234547 23 128 4.8 17.7 0.00 0.00 0.00 10 1014.1
20260507234015 23 161 1.6 17.7 0.00 0.00 0.00 12 1014.3
20260507233515 24 152 4.8 11.3 0.00 0.00 0.00 11 1014.3
20260507233039 24 34 3.2 12.9 0.00 0.00 0.00 11 1014.4
20260507232522 24 129 1.6 12.9 0.00 0.00 0.00 12 1014.4
20260507232017 24 135 1.6 16.1 0.00 0.00 0.00 13 1014.5
20260507231536 24 128 3.2 16.1 0.00 0.00 0.00 11 1014.5
20260507231019 24 0 1.6 11.3 0.00 0.00 0.00 11 1014.5
20260507230520 24 0 1.6 12.9 0.00 0.00 0.00 11 1014.5
20260507230035 24 146 4.8 14.5 0.00 0.00 0.00 12 1014.6
20260507225517 24 154 4.8 14.5 0.00 0.00 0.00 11 1014.9
20260507225020 24 161 4.8 12.9 0.00 0.00 0.00 11 1015.0
20260507224534 24 126 1.6 11.3 0.00 0.00 0.00 12 1014.9
20260507224018 24 155 1.6 11.3 0.00 0.00 0.00 11 1015.0
20260507223519 24 0 1.6 17.7 0.00 0.00 0.00 14 1015.1
20260507223038 23 150 4.8 17.7 0.00 0.00 0.00 12 1015.1
20260507222518 23 138 3.2 11.3 0.00 0.00 0.00 12 1015.2
20260507222018 23 147 3.2 12.9 0.00 0.00 0.00 14 1015.2
20260507221535 23 137 4.8 12.9 0.00 0.00 0.00 12 1015.3
20260507221016 24 155 4.8 12.9 0.00 0.00 0.00 12 1015.3
20260507220519 23 0 0.0 14.5 0.00 0.00 0.00 13 1015.3
20260507220039 23 0 3.2 16.1 0.00 0.00 0.00 13 1015.5
20260507215520 23 123 3.2 16.1 0.00 0.00 0.00 13 1015.4
20260507215019 23 0 3.2 14.5 0.00 0.00 0.00 14 1015.6
20260507214539 23 113 3.2 14.5 0.00 0.00 0.00 15 1015.8
20260507214019 23 152 3.2 14.5 0.00 0.00 0.00 13 1015.8
20260507213519 23 119 1.6 12.9 0.00 0.00 0.00 15 1016.0
20260507213041 24 142 1.6 12.9 0.00 0.00 0.00 15 1016.1
20260507212520 24 144 3.2 12.9 0.00 0.00 0.00 14 1016.2
20260507212019 23 248 1.6 8.0 0.00 0.00 0.00 17 1016.3
20260507211546 23 0 0.0 4.8 0.00 0.00 0.00 19 1016.6
20260507211018 23 46 0.0 11.3 0.00 0.00 0.00 20 1016.5
20260507210519 23 0 1.6 14.5 0.00 0.00 0.00 16 1016.7
20260507210050 23 304 1.6 14.5 0.00 0.00 0.00 15 1016.7
20260507205518 23 0 0.0 12.9 0.00 0.00 0.00 21 1016.8
20260507205020 23 134 0.0 12.9 0.00 0.00 0.00 16 1017.0
20260507204543 23 131 3.2 12.9 0.00 0.00 0.00 18 1017.1
20260507204017 23 120 1.6 9.7 0.00 0.00 0.00 20 1017.2
20260507203518 22 0 0.0 8.0 0.00 0.00 0.00 21 1017.3
20260507203037 22 240 1.6 6.4 0.00 0.00 0.00 17 1017.3
20260507202518 22 40 1.6 6.4 0.00 0.00 0.00 18 1017.5
20260507202018 22 78 0.0 11.3 0.00 0.00 0.00 21 1017.5
20260507201533 22 0 0.0 16.1 0.00 0.00 0.00 20 1017.7
20260507201018 22 252 3.2 16.1 0.00 0.00 0.00 18 1017.8
20260507200515 22 112 4.8 14.5 0.00 0.00 0.00 20 1017.7
20260507200048 22 121 0.0 4.8 0.00 0.00 0.00 21 1017.7
20260507195518 21 0 0.0 9.7 0.00 0.00 0.00 22 1017.8
20260507195018 21 9 1.6 9.7 0.00 0.00 0.00 22 1017.9
20260507194547 21 272 0.0 16.1 0.00 0.00 0.00 23 1018.1
20260507194018 21 131 1.6 16.1 0.00 0.00 0.00 22 1018.1
20260507193519 21 135 3.2 14.5 0.00 0.00 0.00 20 1018.2
20260507193035 21 143 1.6 11.3 0.00 0.00 0.00 20 1018.2
20260507192517 21 0 1.6 11.3 0.00 0.00 0.00 21 1018.3
20260507192018 21 118 1.6 11.3 0.00 0.00 0.00 25 1018.4
20260507191539 21 44 0.0 6.4 0.00 0.00 0.00 24 1018.6
20260507191021 21 211 0.0 8.0 0.00 0.00 0.00 23 1018.8
20260507190515 20 0 1.6 11.3 0.00 0.00 0.00 24 1018.9
20260507190045 20 0 1.6 11.3 0.00 0.00 0.00 25 1019.0
20260507185518 19 0 0.0 8.0 0.00 0.00 0.00 26 1019.2
20260507185018 19 231 1.6 8.0 0.00 0.00 0.00 23 1019.3
20260507184543 19 0 0.0 12.9 0.00 0.00 0.00 26 1019.6
20260507184018 19 265 4.8 12.9 0.00 0.00 0.00 22 1019.6
20260507183518 20 127 1.6 9.7 0.00 0.00 0.00 22 1019.7
20260507183032 20 211 0.0 8.0 0.00 0.00 0.00 24 1019.7
20260507182519 20 0 1.6 8.0 0.00 0.00 0.00 24 1019.8
20260507182018 20 141 0.0 6.4 0.00 0.00 0.00 23 1019.9
20260507181534 19 335 0.0 6.4 0.00 0.00 0.00 24 1019.9
20260507181018 19 360 0.0 4.8 0.00 0.00 0.00 28 1020.0
20260507180520 18 0 0.0 8.0 0.00 0.00 0.00 26 1020.1
20260507180103 18 154 0.0 8.0 0.00 0.00 0.00 26 1020.2
20260507175518 18 120 0.0 6.4 0.00 0.00 0.00 27 1020.3
20260507175018 18 0 1.6 6.4 0.00 0.00 0.00 28 1020.3
20260507174538 17 200 0.0 6.4 0.00 0.00 0.00 28 1020.4
20260507174015 17 0 1.6 6.4 0.00 0.00 0.00 31 1020.5
20260507173520 17 122 0.0 8.0 0.00 0.00 0.00 30 1020.6
20260507173044 17 40 1.6 8.0 0.00 0.00 0.00 29 1020.7
20260507172515 17 36 0.0 6.4 0.00 0.00 0.00 29 1020.8
20260507172018 17 0 0.0 9.7 0.00 0.00 0.00 30 1020.9
20260507171534 17 119 1.6 9.7 0.00 0.00 0.00 32 1020.9
20260507171018 16 31 0.0 8.0 0.00 0.00 0.00 30 1021.1
20260507170515 16 55 1.6 12.9 0.00 0.00 0.00 35 1021.2
20260507170035 16 295 1.6 12.9 0.00 0.00 0.00 34 1021.2
20260507165517 16 52 3.2 14.5 0.00 0.00 0.00 32 1021.3
20260507165014 16 59 3.2 14.5 0.00 0.00 0.00 31 1021.3
20260507164544 16 13 1.6 11.3 0.00 0.00 0.00 39 1021.3
20260507164017 15 21 1.6 14.5 0.00 0.00 0.00 38 1021.3
20260507163522 15 58 1.6 14.5 0.00 0.00 0.00 36 1021.5
20260507163037 15 80 4.8 12.9 0.00 0.00 0.00 36 1021.5
20260507162520 15 323 3.2 14.5 0.00 0.00 0.00 38 1021.5
20260507162018 14 68 3.2 14.5 0.00 0.00 0.00 38 1021.6
20260507161549 14 333 3.2 14.5 0.00 0.00 0.00 39 1021.6
20260507161018 13 69 3.2 14.5 0.00 0.00 0.00 41 1021.7
20260507160518 13 11 3.2 14.5 0.00 0.00 0.00 41 1021.8
20260507160036 13 338 4.8 14.5 0.00 0.00 0.00 42 1021.7
20260507155518 13 278 3.2 14.5 0.00 0.00 0.00 43 1021.8
20260507155015 13 41 3.2 14.5 0.00 0.00 0.00 42 1021.9
20260507154534 12 360 3.2 14.5 0.00 0.00 0.00 43 1021.9
20260507154017 12 0 3.2 14.5 0.00 0.00 0.00 45 1021.9
20260507153517 12 25 3.2 14.5 0.00 0.00 0.00 44 1022.0
20260507153039 12 345 3.2 14.5 0.00 0.00 0.00 45 1022.1
20260507152520 12 360 4.8 12.9 0.00 0.00 0.00 45 1022.0
20260507152018 12 233 3.2 12.9 0.00 0.00 0.00 47 1022.0
20260507151536 11 350 3.2 19.3 0.00 0.00 0.00 48 1022.1
20260507151018 11 88 3.2 19.3 0.00 0.00 0.00 48 1022.1
20260507150516 11 27 3.2 16.1 0.00 0.00 0.00 50 1022.2
20260507150038 11 34 4.8 19.3 0.00 0.00 0.00 51 1022.2
20260507145517 10 65 4.8 19.3 0.00 0.00 0.00 52 1022.2
20260507145018 10 38 3.2 16.1 0.00 0.00 0.00 53 1022.2
20260507144536 10 330 6.4 16.1 0.00 0.00 0.00 53 1022.3
20260507144016 10 190 3.2 17.7 0.00 0.00 0.00 54 1022.3
20260507143515 10 326 6.4 17.7 0.00 0.00 0.00 55 1022.2
20260507143040 9 337 4.8 14.5 0.00 0.00 0.00 56 1022.4
20260507142516 9 161 4.8 16.1 0.00 0.00 0.00 57 1022.3
20260507142014 9 40 3.2 17.7 0.00 0.00 0.00 57 1022.3
20260507141533 8 346 4.8 17.7 0.00 0.00 0.00 59 1022.2
20260507141020 8 351 3.2 19.3 0.00 0.00 0.00 58 1022.3
20260507140518 8 295 6.4 19.3 0.00 0.00 0.00 59 1022.2
20260507140042 8 28 3.2 16.1 0.00 0.00 0.00 59 1022.3
20260507135518 8 329 3.2 16.1 0.00 0.00 0.00 59 1022.2
20260507135020 8 333 4.8 16.1 0.00 0.00 0.00 60 1022.3
20260507134535 8 278 4.8 16.1 0.00 0.00 0.00 59 1022.3
20260507134017 7 360 3.2 16.1 0.00 0.00 0.00 60 1022.2
20260507133518 7 360 4.8 16.1 0.00 0.00 0.00 60 1022.2
20260507133035 7 360 4.8 14.5 0.00 0.00 0.00 60 1022.2
20260507132518 7 360 3.2 17.7 0.00 0.00 0.00 62 1022.2
20260507132017 6 360 1.6 17.7 0.00 0.00 0.00 63 1022.2
20260507131539 6 360 4.8 17.7 0.00 0.00 0.00 63 1022.0
20260507131018 6 360 3.2 14.5 0.00 0.00 0.00 64 1022.2
20260507130519 6 360 1.6 14.5 0.00 0.00 0.00 65 1022.1
20260507130039 6 360 3.2 12.9 0.00 0.00 0.00 66 1022.2
20260507125517 6 360 4.8 14.5 0.00 0.00 0.00 66 1022.1
20260507125017 6 360 1.6 14.5 0.00 0.00 0.00 66 1022.2
20260507124538 5 360 1.6 9.7 0.00 0.00 0.00 68 1022.1
20260507124022 5 360 1.6 9.7 0.00 0.00 0.00 68 1022.2
20260507123522 5 0 1.6 9.7 0.00 0.00 0.00 69 1022.1
20260507123032 4 360 1.6 6.4 0.00 0.00 0.00 69 1022.1
20260507122518 4 360 1.6 6.4 0.00 0.00 0.00 69 1022.0
20260507122018 4 0 0.0 1.6 0.00 0.00 0.00 68 1022.0
20260507121536 4 0 0.0 1.6 0.00 0.00 0.00 67 1021.9
20260507121015 4 0 0.0 1.6 0.00 0.00 0.00 66 1021.9
20260507120518 4 0 0.0 1.6 0.00 0.00 0.00 65 1021.8
20260507120032 4 0 0.0 1.6 0.00 0.00 0.00 64 1021.9
20260507115515 4 0 0.0 1.6 0.00 0.00 0.00 63 1021.9
20260507115019 4 0 0.0 4.8 0.00 0.00 0.00 62 1021.9
20260507114554 4 0 0.0 4.8 0.00 0.00 0.00 62 1022.0
20260507114018 3 0 0.0 4.8 0.00 0.00 0.00 63 1021.8
20260507113515 3 0 0.0 1.6 0.00 0.00 0.00 58 1021.8
20260507113058 3 0 0.0 1.6 0.00 0.00 0.00 56 1021.9
20260507112514 4 0 0.0 3.2 0.00 0.00 0.00 55 1022.0
20260507112017 4 0 0.0 4.8 0.00 0.00 0.00 54 1022.0
20260507111541 4 0 1.6 4.8 0.00 0.00 0.00 53 1021.9
20260507111017 4 360 0.0 3.2 0.00 0.00 0.00 52 1021.9
20260507110519 4 0 0.0 0.0 0.00 0.00 0.00 51 1021.9
20260507110037 4 0 0.0 1.6 0.00 0.00 0.00 51 1021.9
20260507105517 5 0 0.0 1.6 0.00 0.00 0.00 50 1021.8
20260507105017 5 0 0.0 3.2 0.00 0.00 0.00 49 1021.9
20260507104540 5 0 0.0 3.2 0.00 0.00 0.00 47 1021.8
20260507104018 5 360 0.0 0.0 0.00 0.00 0.00 46 1021.9
20260507103516 5 0 0.0 0.0 0.00 0.00 0.00 44 1022.0
20260507103032 5 0 0.0 0.0 0.00 0.00 0.00 44 1021.9
20260507102517 5 0 0.0 0.0 0.00 0.00 0.00 44 1021.9
20260507102014 5 0 0.0 1.6 0.00 0.00 0.00 43 1021.7
20260507101534 5 0 0.0 1.6 0.00 0.00 0.00 43 1021.7
20260507101020 5 0 0.0 1.6 0.00 0.00 0.00 42 1021.7
20260507100514 5 0 0.0 1.6 0.00 0.00 0.00 42 1021.7
20260507100030 6 0 0.0 4.8 0.00 0.00 0.00 41 1021.7
20260507095518 6 0 0.0 4.8 0.00 0.00 0.00 41 1021.7
20260507095017 6 0 0.0 1.6 0.00 0.00 0.00 40 1021.7
20260507094535 6 0 0.0 1.6 0.00 0.00 0.00 39 1021.7
20260507094017 6 360 0.0 1.6 0.00 0.00 0.00 38 1021.7
20260507093517 6 0 0.0 1.6 0.00 0.00 0.00 38 1021.6
20260507093035 6 360 0.0 4.8 0.00 0.00 0.00 38 1021.6
20260507092518 6 0 0.0 4.8 0.00 0.00 0.00 38 1021.7
20260507092015 7 360 0.0 4.8 0.00 0.00 0.00 37 1021.7
20260507091537 7 0 0.0 4.8 0.00 0.00 0.00 37 1021.6
20260507091017 7 0 0.0 4.8 0.00 0.00 0.00 37 1021.5
20260507090521 7 360 1.6 4.8 0.00 0.00 0.00 37 1021.5
20260507090033 7 0 0.0 6.4 0.00 0.00 0.00 36 1021.6
20260507085518 7 360 1.6 6.4 0.00 0.00 0.00 36 1021.6
20260507085014 7 360 1.6 4.8 0.00 0.00 0.00 36 1021.5
20260507084543 7 360 1.6 4.8 0.00 0.00 0.00 37 1021.6
20260507084019 7 0 0.0 4.8 0.00 0.00 0.00 37 1021.5
20260507083518 7 0 0.0 4.8 0.00 0.00 0.00 37 1021.4
20260507083036 7 0 0.0 1.6 0.00 0.00 0.00 37 1021.3
20260507082517 7 0 0.0 0.0 0.00 0.00 0.00 37 1021.5
20260507082017 7 0 0.0 0.0 0.00 0.00 0.00 38 1021.5
20260507081540 7 0 0.0 3.2 0.00 0.00 0.00 36 1021.4
20260507081019 8 0 0.0 8.0 0.00 0.00 0.00 36 1021.3
20260507080519 8 0 0.0 8.0 0.00 0.00 0.00 35 1021.3
20260507080033 8 0 1.6 8.0 0.00 0.00 0.00 33 1021.1
20260507075518 8 360 1.6 8.0 0.00 0.00 0.00 33 1021.0
20260507075018 8 63 1.6 11.3 0.00 0.00 0.00 33 1021.0
20260507074538 8 299 0.0 14.5 0.00 0.00 0.00 33 1020.8
20260507074020 8 258 4.8 14.5 0.00 0.00 0.00 32 1020.5
20260507073521 8 242 4.8 11.3 0.00 0.00 0.00 32 1020.5
20260507073035 8 267 4.8 11.3 0.00 0.00 0.00 33 1020.5
20260507072520 8 255 4.8 12.9 0.00 0.00 0.00 33 1020.5
20260507072017 8 240 4.8 12.9 0.00 0.00 0.00 33 1020.3
20260507071535 8 252 1.6 9.7 0.00 0.00 0.00 33 1020.3
20260507071018 8 238 1.6 12.9 0.00 0.00 0.00 32 1020.4
20260507070518 8 255 3.2 12.9 0.00 0.00 0.00 33 1020.4
20260507070035 8 243 4.8 12.9 0.00 0.00 0.00 33 1020.4
20260507065518 8 240 6.4 12.9 0.00 0.00 0.00 33 1020.4
20260507065018 9 250 4.8 16.1 0.00 0.00 0.00 33 1020.5
20260507064539 9 270 4.8 16.1 0.00 0.00 0.00 33 1020.4
20260507064018 9 277 4.8 16.1 0.00 0.00 0.00 33 1020.4
20260507063520 9 273 4.8 16.1 0.00 0.00 0.00 33 1020.4
20260507063035 9 241 4.8 12.9 0.00 0.00 0.00 33 1020.5
20260507062518 9 270 3.2 12.9 0.00 0.00 0.00 33 1020.4
20260507062018 10 269 4.8 12.9 0.00 0.00 0.00 33 1020.3
20260507061538 10 263 4.8 11.3 0.00 0.00 0.00 33 1020.3
20260507061017 10 261 3.2 12.9 0.00 0.00 0.00 34 1020.4
20260507060518 10 252 4.8 12.9 0.00 0.00 0.00 33 1020.3
20260507060036 10 261 3.2 12.9 0.00 0.00 0.00 33 1020.3
20260507055518 10 0 1.6 8.0 0.00 0.00 0.00 34 1020.2
20260507055020 10 269 1.6 6.4 0.00 0.00 0.00 34 1020.1
20260507054538 10 360 1.6 4.8 0.00 0.00 0.00 34 1020.2
20260507054018 10 0 0.0 8.0 0.00 0.00 0.00 35 1020.1
20260507053519 10 0 0.0 14.5 0.00 0.00 0.00 34 1020.1
20260507053034 10 360 1.6 14.5 0.00 0.00 0.00 34 1020.0
20260507052518 11 360 1.6 12.9 0.00 0.00 0.00 34 1020.0
20260507052019 11 360 1.6 12.9 0.00 0.00 0.00 34 1020.0
20260507051537 11 360 3.2 12.9 0.00 0.00 0.00 35 1019.9
20260507051022 11 360 3.2 9.7 0.00 0.00 0.00 35 1019.9
20260507050518 11 360 4.8 9.7 0.00 0.00 0.00 36 1019.9
20260507050041 11 360 3.2 9.7 0.00 0.00 0.00 37 1019.8
20260507045521 11 360 3.2 9.7 0.00 0.00 0.00 38 1019.7
20260507045018 11 360 3.2 8.0 0.00 0.00 0.00 39 1019.7
20260507044539 12 360 1.6 8.0 0.00 0.00 0.00 40 1019.6